Regional Weather Roundup
Issued by NWS Wakefield, VA

Home | Current Version | Previous Version | Graphics & Text | Print | Product List | Glossary On
Versions: 1 2 3 4 5 6 7 8 9 10 11 12 13 14 15 16 17 18 19 20 21 22 23 24 25 26 27 28 29 30
000
ASUS41 KAKQ 260215
RWRAKQ

REGIONAL WEATHER ROUNDUP
NATIONAL WEATHER SERVICE WAKEFIELD VA
1000 PM EDT WED APR 25 2018

Note: "fair" indicates few or no clouds below 12,000 feet with no
significant weather and/or obstructions to visibility. * = Denotes
station may not report precipitation (e.g., rain,snow,etc.),
thunder or fog.

VAZ042-051-052>054-056-260300-
NORTHERN VIRGINIA

CITY           SKY/WX    TMP DP  RH WIND       PRES   REMARKS
WASH NATIONAL  CLOUDY    63  57  81 CALM      29.73S
DULLES         MOCLDY    60  55  83 NW10      29.74R
FORT BELVOIR   CLOUDY    59  57  93 CALM      29.74R
QUANTICO       CLOUDY    60  60 100 CALM      29.75R
FREDERICKSBRG* FAIR      58  58 100 CALM      29.75R
STAFFORD*      MOCLDY    58  58 100 CALM      29.78S
WARRENTON      CLOUDY    63  51  66 NW6       29.75S
CULPEPER*      CLOUDY    64  52  63 NW3       29.77R
MANASSAS*      CLOUDY    58  57  97 NW7       29.75R
LEESBURG*      MOCLDY    59  52  77 NW9       29.76S
WINCHESTER     FAIR      57  48  72 NW10      29.80R
FRONT ROYAL*   FAIR      61  50  67 NW3       29.78R
LURAY*         CLOUDY    61  50  67 NW7       29.79R
$$

VAZ048-049-060>072-079>083-260300-
CENTRAL AND SOUTH CENTRAL VIRGINIA

CITY           SKY/WX    TMP DP  RH WIND       PRES   REMARKS
RICHMOND       CLOUDY    61  61 100 S3        29.74F
CHESTERFIELD*  CLOUDY    60  60 100 CALM      29.76S
PETERSBURG*    CLOUDY    59  57  95 CALM      29.77S FOG
HANOVER        CLOUDY    59  59 100 CALM      29.76S
TAPPAHANNOCK*  FAIR      60  59  96 W3        29.76R
QUINTON*       CLOUDY    60  60 100 CALM      29.75S
CHARLOTTSVILLE FAIR      64  51  62 NW7       29.76R
GORDONSVILLE*  CLOUDY    65  54  67 CALM      29.75S
ORANGE*        CLOUDY    61  55  82 CALM      29.76R
LOUISA*        CLOUDY    57  57  97 W3        29.79S
BUMPASS*       NOT AVBL
FARMVILLE*     MOCLDY   N/A N/A N/A CALM      29.76R
CREWE*         CLOUDY    58  58 100 CALM      29.77R VSB 1/2
FORT PICKETT*  CLOUDY   N/A N/A N/A CALM      29.77R VSB 1/4
CHASE CITY*    CLOUDY    56  56 100 CALM      29.79R
CLARKSVILLE*   CLOUDY    55  55 100 CALM      29.79R
SOUTH HILL*    FAIR      56  56 100 CALM      29.83S
LAWRENCEVILLE* FAIR      58  58  97 CALM      29.77R
EMPORIA*         N/A     61  61 100 CALM      29.79R
$$

VAZ088>098-260300-
SOUTHEAST VIRGINIA

CITY           SKY/WX    TMP DP  RH WIND       PRES   REMARKS
NORFOLK        FAIR      62  60  93 VRB3      29.74R
VIRGINIA BEACH MOCLDY    60  59  96 W6        29.73S
NORFOLK NAVAL  MOCLDY    62  58  86 NW9       29.76R
WEST POINT*    CLOUDY    58  57  97 CALM      29.76S VSB 3/4
SALUDA*        CLOUDY    60  60 100 CALM      29.74F
NEWPORT NEWS   MOCLDY    61  58  90 W5        29.75R
LANGLEY AFB    FAIR      60  60 100 W6        29.75R
FORT EUSTIS    FAIR      61  59  94 W5        29.73R
WILLIAMSBURG*  FAIR      61  61 100 CALM      29.76S
HR EXEC AP*    FAIR      58  57  97 CALM      29.76R FOG
FRANKLIN*      MOCLDY    60  59  98 NW3       29.76S FOG
US460-WAKEFLD  MOCLDY    61  60  97 CALM      29.76S
$$

VAZ020-022-025-037-045-260300-
WEST CENTRAL AND SOUTHWEST VIRGINIA

CITY           SKY/WX    TMP DP  RH WIND       PRES   REMARKS
STAUNTON*      MOCLDY    58  48  69 NW6       29.82R
WAYNESBORO*    MOCLDY    59  48  68 W6        29.81R
HOT SPRINGS VA CLOUDY    49  48  97 NW12G18   29.86R
LYNCHBURG      FAIR      55  49  80 CALM      29.80R
DANVILLE       FAIR      55  54  96 SW5       29.81R
SOUTH BOSTON*  FAIR      58  56  95 SW6       29.79R
MARTINSVILLE   FAIR      58  50  75 CALM      29.86R
ROANOKE        MOCLDY    58  48  69 N3        29.85R
BLACKSBURG     CLOUDY    56  50  80 W6        29.89S
DUBLIN*        DRIZZLE   55  51  86 N10       29.90R
MARION*        CLOUDY    54  51  91 NW12G18   29.93S
HILLSVILLE*    CLOUDY    53  50  90 NW12      29.87R
RICHLANDS*     CLOUDY    50  33  52 NW7       29.94R HAZE
WISE*          CLOUDY    50  50 100 CALM      29.96S
ABINGDON*      CLOUDY    55  52  87 N7        29.93S
$$

MDZ021>025-VAZ099-100-260300-
SOUTHERN MARYLAND AND THE DELMARVA PENINSULA

CITY           SKY/WX    TMP DP  RH WIND       PRES   REMARKS
PATUXENT RIVER MOCLDY    61  59  93 W8        29.72S
BAY BRIDGE APT CLOUDY    59  55  88 NW6       29.72R
LEONARDTOWN    CLOUDY    59  57  94 W3        29.74S
DOVER          CLOUDY    64  60  87 W10       29.68R
GEORGETOWN     RAIN      62  61  96 W3        29.69R FOG
EASTON         MOCLDY    63  59  88 NW8       29.75R
CAMBRIDGE      CLOUDY    61  59  94 NW10      29.72R
SALISBURY      HVY RAIN  62  61  96 W10       29.70R FOG
TANGIER        CLOUDY    57  57 100 SW5       29.72F
OCEAN CITY     LGT RAIN  62  60  93 W6        29.68R
WALLOPS ISLAND LGT RAIN  62  61  96 W10       29.71R FOG
ACCOMACK*      DRIZZLE   60  59  96 W6        29.73R
$$

NCZ012>017-030>032-260300-
NORTH CENTRAL AND EASTERN NORTH CAROLINA

CITY           SKY/WX    TMP DP  RH WIND       PRES   REMARKS
ROANOKE RAPIDS FAIR      55  55 100 CALM      29.77S
RALEIGH        FAIR      57  57 100 CALM      29.81R
ELIZABETH CITY FAIR      62  61  96 SW3       29.75R
AHOSKIE*       FAIR      59  59 100 CALM      29.78R
EDENTON*       FAIR      65  62  90 W3        29.77R
CURRITUCK*     NOT AVBL
KILL DEVIL HLS FAIR      61  60  99 CALM      29.75R
MANTEO         MOCLDY    62  60  94 W5        29.76S
CAPE HATTERAS  FAIR      67  61  81 W8        29.76R
TARBORO*       NOT AVBL
GOLDSBORO      FAIR      60  57  89 CALM      29.78R
WASHINGTON     FAIR      62  57  85 CALM      29.78R
GREENVILLE     FAIR      61  59  94 CALM      29.82R
NEW BERN       FAIR      61  57  87 W3        29.80R
WILMINGTON     FAIR      61  56  83 CALM      29.82R
$$

VAZ048-260300-
ELSEWHERE

CITY           SKY/WX    TMP DP  RH WIND       PRES   REMARKS
HARRISBURG PA  CLOUDY    57  55  93 NW6       29.72R
BALTIMORE      MOCLDY    58  58 100 W5        29.72R
ANNAPOLIS      MOCLDY    63  57  81 NW6       29.72R
ANDREWS AFB    MOCLDY    60  59  96 W3        29.72S
PHILADELPHIA   CLOUDY    62  58  86 N9        29.68R
HENDERSON NC   FAIR      55  55  97 SW3       29.79R
GREENSBORO     FAIR      59  52  77 NW8       29.82R
ROCKY MOUNT    FAIR      57  56  96 CALM      29.79R
$$

VAZ100-260300-
MARINE

STATION/POSITION TIME  TEMP    WIND        PRES    WAVE   SWELL
                       AIR SEA DIR/SP/G            HT/PER HT/PER
                 (UTC) (F)     (DEG/KT/KT) (MB)    (FT/S) (FT/S)
BRANDYWINE LGT   0148   54     270/ 12/ 13 1005.1R
CAPE MAY NJ      0148   53 53  310/  6/ 11 1004.1R
LEWES DE         0148   60 53  280/  5/  5 1004.7R
15NM E FENWICK I 0150   46 49  220/ 10/ 12 1005.3R   7/10   7/10
OCEAN-CITY-INLET 0148   61 52  280/  6/  9 1005.4R
WACHAPREAGUE VA  0148   61 61  280/  3/  7 1006.6R
THOMAS POINT MD  0200   61 54  300/  4/  5 1007.4R
GOOSES REEF MD   0200   58     310/  6/  6 1006.7
COVE POINT MD    0148   58     350/  9/ 10 1007.1R
SOLOMONS ISLAND  0148   59 54  290/  4/  6 1006.3R
BISHOPS HEAD MD  0148   60 62  300/ 14/ 18 1006.7R
PINEY POINT MD   0142          320/  7/  8   N/A
POTOMAC MD       0200   57 56  310/  8/ 10 1007.8    1
CAMBRIDGE MD     0148   61 57              1007.0R
LEWISETTA VA     0148   61 55  300/  5/  6 1006.7R
RAPPAHANNOCK LGT 0142          240/  9/  9 1007.4R
YORK RVR RNG VA  0148   61     300/  9/ 10 1007.7R
YORKTOWN VA      0148   62 57  290/  9/ 10 1006.9R
DOMINION TERM VA 0148   61     310/  6/  7 1007.6R
KIPTOPEKE VA     0142      56  290/  9/ 12   N/A
CAPE HENRY VA    0148   60     270/  7/ 10   N/A
WILLOUBY STN VA  0148   62     300/ 10/ 10 1007.4R
S CRANEY ISL VA  0148   62     290/  5/  7 1007.1R
CAPE HENRY BUOY  0200      56                N/A     4/11   2/11
1ST LANDING BUOY 0200   59 55  290/  8/ 10 1008.0    2/ 8
64NM E OF VA BCH 0150   54 51  230/  8/  8 1007.1R   9/10   8/10
DUCK PIER NC     0148   62 52  250/  5/  7 1007.1R
44100 DUCK FRF   0145      55                N/A     6/11   2/11
44056 DUCK FRF   0130      53                N/A     5/10   2/11
OREGON INLET NC  0142   63 62  300/  3/  6 1007.6R
HATTERAS NC      0148   66 67  250/  7/ 10 1007.6R
DIAMOND SHLS NC  0150   68 70  260/ 16/ 21 1008.0R   8/ 9   5/ 9
CAPE LOOKOUT NC  0200          260/  8/  9 1009.2R
$$




USA.gov is the U.S. government's official web portal to all federal, state and local government web resources and services.